Tracking 19564 objects as of 20-Mar-2019
HD Live streaming from Space Station
objects crossing your sky now

FENGYUN 1C DEB

Track FENGYUN 1C DEB now!
10-day predictions


NORAD ID: 30468
Int'l Code: 1999-025AGF
Perigee: 810.8 km
Apogee: 937.4 km
Inclination: 99.1 °
Period: 102.3 minutes
Semi major axis: 7245 km
RCS: 0.042 m2 (small)
Launch date: May 10, 1999
Source: People's Republic of China (PRC)
Launch site: Taiyaun Space Center, China (TSC)

Note: This is SATELLITE DEBRIS
aabbcc
Your satellite tracking list
Your tracking list is empty




NASA's NSSDC Master Catalog

Two Line Element Set (TLE):
1 30468U 99025AGF 19077.85222421 +.00000560 +00000-0 +34475-3 0  9993
2 30468 099.1042 118.3302 0087361 129.0668 286.3898 14.07795395620937
Source of the keplerian elements: AFSPC